Weather Roundup
Issued by NWS Chicago, IL

Home | Current Version | Previous Version | Text Only | Print | Product List | Glossary On
Versions: 1 2 3 4 5 6 7 8 9 10 11 12 13 14 15 16 17 18 19 20 21 22 23 24 25 26 27 28 29 30 31 32 33 34 35 36 37 38 39 40 41 42 43 44 45 46 47 48 49 50
000
NZUS59 KLOT 252108
HRRLOT

CHICAGO AREA WEATHER ROUNDUP
NATIONAL WEATHER SERVICE CHICAGO/ROMEOVILLE IL
400 PM CDT WED APR 25 2018

NOTE: "FAIR" INDICATES FEW OR NO CLOUDS BELOW 12,000 FEET WITH NO
SIGNIFICANT WEATHER AND/OR OBSTRUCTIONS TO VISIBILITY.

* THESE STATIONS ARE NOT UNDER NWS QUALITY CONTROL. THEY ALSO MAY NOT
  REPORT WEATHER SUCH AS PRECIPITATION OR FOG.

ILZ005-006-012>014-019>023-252200-
NORTHEAST ILLINOIS

CITY           SKY/WX    TMP DP  RH WIND       PRES   REMARKS
OHARE            N/A     49  31  49 NE13      30.05F
MIDWAY           N/A     50  32  50 NE15G22   30.06F
AURORA           N/A     62  32  32 NW9       30.01F
LANSING*         N/A     49  34  56 N13       30.06S
JOLIET*          N/A     60  36  40 N7        30.02F
WAUKEGAN         N/A     45  31  58 NE12G20   30.06F
DUPAGE AIRPORT   N/A     56  34  43 E13       30.02F
WHEELING         N/A     47  30  51 NE16G22   30.08F
KANKAKEE*        N/A     57  32  38 NE13      30.04S
MORRIS*          N/A     62  30  29 N6        30.00F
LEWIS AIRPORT*   N/A     58  34  39 E10       30.02F
NORTHERLY ISL    N/A     44  35  70 N7          N/A
$$

WIZ051-052-058>065-066-070>072-252200-
SOUTHEAST WISCONSIN

CITY           SKY/WX    TMP DP  RH WIND       PRES   REMARKS
MILWAUKEE        N/A     45  31  58 NE15G24   30.08F
KENOSHA*         N/A     50  29  44 NE15      30.06F
RACINE*          N/A     44  31  60 NE17G26   30.09F
BURLINGTON       N/A     55  32  42 SE10      30.04F
WAUKESHA       SUNNY     54  30  40 E12G18    30.06F
WEST BEND        N/A     54  30  40 NE7       30.05F
$$

INZ001>003-010>013-019-020-252200-
NORTHWEST INDIANA

CITY           SKY/WX    TMP DP  RH WIND       PRES   REMARKS
GARY*          MOSUNNY   46  32  57 NE12G25   30.07F
MICHIGAN CITY* NOT AVBL
RENSSELAER*    NOT AVBL
VALPARAISO       N/A     52  29  41 N14G23    30.04F
$$

LMZ740>746-252200-
SOUTHERN LAKE MICHIGAN

STATION/POSITION TIME  SKY/WX   TEMP WIND        PRES    VSBY
                                AIR  DIR/SP/G
                 (UTC)          (F)  (DEG/KT/KT) (MB)    (MI)
HARRISON CRIB    2040            39   10/ 12/ 13   N/A
BURNHAM HARBOR   2100            43   20/ 12/ 14   N/A
CALUMET HARBOR   2048            41   20/ 10/ 14 1017.7F
BURNS HARBOR     2040            41   50/ 13/ 14 1018.6F
MICHIGAN CITY    2040            39   10/ 13/ 15   N/A
$$

ABBREVIATIONS USED IN REMARKS
   TC - TEMPERATURE IN CELSIUS
  WCI - WIND CHILL INDEX
   HX - HEAT INDEX
  VSB - VISIBILITY
$$




USA.gov is the U.S. government's official web portal to all federal, state and local government web resources and services.